Location: Grand Rapids
(42.9630°N, 85.6680°W)
Time: 02:42:49
(UTC-04:00)

S-56A Canister/Altair - Pass Details

Date: 07 June 2024
Orbit: 637 x 2489 km, 38.9° (Epoch: 21 June)

Event Time Altitude Azimuth Distance (km) Brightness Sun altitude
Rises 01:58:21 0° 218° (SW) 5,485 - -24.1°
Reaches altitude 10° 02:01:53 10° 212° (SSW) 4,683 - -24.1°
Exits shadow 02:08:55 33° 189° (S) 3,430 10.2 -23.9°
Maximum altitude 02:14:33 45° 146° (SE) 3,094 10.2 -23.8°
Drops below altitude 10° 02:28:10 10° 81° (E) 5,038 11.9 -23.4°
Sets 02:32:07 0° 76° (ENE) 5,924 12.4 -23.2°
